TimeEDT,TemperatureF,Dew PointF,Humidity,Sea Level PressureIn,VisibilityMPH,Wind Direction,Wind SpeedMPH,Gust SpeedMPH,PrecipitationIn,Events,Conditions,WindDirDegrees,DateUTC
12:53 AM,51.1,39.9,66,30.03,10.0,SSW,3.5,-,N/A,,Clear,200,2011-10-26 04:53:00
1:53 AM,51.1,39.9,66,30.01,10.0,South,4.6,-,N/A,,Clear,190,2011-10-26 05:53:00
2:53 AM,51.1,41.0,68,29.99,10.0,SSW,4.6,-,N/A,,Clear,200,2011-10-26 06:53:00
3:53 AM,50.0,41.0,71,29.97,10.0,South,3.5,-,N/A,,Clear,170,2011-10-26 07:53:00
4:53 AM,50.0,41.0,71,29.94,10.0,Calm,Calm,-,N/A,,Clear,0,2011-10-26 08:53:00
5:53 AM,54.0,43.0,66,29.93,10.0,Calm,Calm,-,N/A,,Clear,0,2011-10-26 09:53:00
6:53 AM,48.2,42.8,82,29.92,10.0,Calm,Calm,-,N/A,,Clear,0,2011-10-26 10:53:00
7:53 AM,48.9,44.1,83,29.92,10.0,Calm,Calm,-,N/A,,Clear,0,2011-10-26 11:53:00
8:53 AM,57.0,45.0,64,29.95,10.0,SSW,4.6,-,N/A,,Clear,200,2011-10-26 12:53:00
9:53 AM,59.0,45.0,60,29.93,10.0,South,8.1,-,N/A,,Clear,180,2011-10-26 13:53:00
10:53 AM,59.0,46.4,63,29.84,10.0,South,13.8,24.2,N/A,Rain,Light Rain,190,2011-10-26 14:53:00
11:53 AM,63.0,48.0,58,29.89,10.0,NNW,6.9,-,0.01,,Scattered Clouds,330,2011-10-26 15:53:00
12:53 PM,64.0,50.0,60,29.89,10.0,Calm,Calm,-,N/A,,Mostly Cloudy,0,2011-10-26 16:53:00
1:53 PM,64.0,50.0,60,29.86,6.0,West,5.8,-,0.00,Rain,Light Rain,280,2011-10-26 17:53:00
2:53 PM,60.1,55.0,83,29.84,6.0,Calm,Calm,-,0.04,Rain,Light Rain,0,2011-10-26 18:53:00
3:53 PM,61.0,54.0,78,29.83,10.0,Calm,Calm,-,0.00,,Partly Cloudy,0,2011-10-26 19:53:00
4:53 PM,64.9,53.1,65,29.81,10.0,South,4.6,-,N/A,,Clear,180,2011-10-26 20:53:00
5:53 PM,63.0,52.0,67,29.81,10.0,SSE,3.5,-,N/A,,Mostly Cloudy,160,2011-10-26 21:53:00
6:53 PM,57.9,51.1,78,29.81,10.0,SSE,3.5,-,N/A,,Scattered Clouds,150,2011-10-26 22:53:00
7:53 PM,57.2,51.8,82,29.79,10.0,Calm,Calm,-,N/A,,Mostly Cloudy,0,2011-10-26 23:53:00
8:53 PM,57.0,53.1,87,29.80,10.0,Calm,Calm,-,N/A,,Overcast,0,2011-10-27 00:53:00
9:53 PM,57.0,53.1,87,29.81,10.0,Calm,Calm,-,0.00,Rain,Light Rain,0,2011-10-27 01:53:00
10:53 PM,55.9,53.1,90,29.79,10.0,Calm,Calm,-,0.01,Rain,Light Rain,0,2011-10-27 02:53:00
11:53 PM,55.9,53.1,90,29.76,9.0,South,5.8,-,0.00,,Mostly Cloudy,170,2011-10-27 03:53:00